,,,PA_Meas_PMT16A,,PR_Meas_QMR101_102,,RH_Meas_QMH101,,SR_Meas_QMS101,,TA_Meas_QMH101,,GenWind,,GenWind,
date,time,status,PA,status,PR,status,RH,status,SR,status,TA,status,DirAvg,status,SpdAvg,
2010-03-25, 00:00:04,VALID,1008.18,VALID,0,VALID,92.1496,VALID,0,VALID,25.0369,VALID,61,VALID,0.187109,
2010-03-25, 00:01:04,VALID,1008.19,VALID,0,VALID,91.9971,VALID,0,VALID,25.0369,VALID,61,VALID,0.396484,
2010-03-25, 00:02:04,VALID,1008.16,VALID,0,VALID,91.9971,VALID,0,VALID,25.0973,VALID,61,VALID,0.0640625,
2010-03-25, 00:03:04,VALID,1008.14,VALID,0,VALID,92.0047,VALID,0,VALID,25.0564,VALID,61,VALID,0,
2010-03-25, 00:04:04,VALID,1008.14,VALID,0,VALID,91.8598,VALID,0,VALID,25.0369,VALID,61,VALID,0,
2010-03-25, 00:05:04,VALID,1008.12,VALID,0,VALID,91.8141,VALID,0,VALID,25.0778,VALID,59,VALID,0,
2010-03-25, 00:06:04,VALID,1008.11,VALID,0,VALID,91.8598,VALID,0,VALID,25.0369,VALID,59,VALID,0,
2010-03-25, 00:07:04,VALID,1008.11,VALID,0,VALID,91.8903,VALID,0,VALID,25.0369,VALID,59,VALID,0,
2010-03-25, 00:08:04,VALID,1008.08,VALID,0,VALID,91.9132,VALID,0,VALID,25.0369,VALID,59,VALID,0,
2010-03-25, 00:09:05,VALID,1008.08,VALID,0,VALID,91.9132,VALID,0,VALID,25.0388,VALID,59,VALID,0,
2010-03-25, 00:10:05,VALID,1008.06,VALID,0,VALID,91.8827,VALID,0,VALID,25.0369,VALID,59,VALID,0,
2010-03-25, 00:11:05,VALID,1008.02,VALID,0,VALID,91.9513,VALID,0,VALID,25.0174,VALID,59,VALID,0,
2010-03-25, 00:12:05,VALID,1008.01,VALID,0,VALID,92.0505,VALID,0,VALID,25.0174,VALID,59,VALID,0,
2010-03-25, 00:13:05,VALID,1008.01,VALID,0,VALID,92.0276,VALID,0,VALID,25.0174,VALID,59,VALID,0,
2010-03-25, 00:14:05,VALID,1007.99,VALID,0,VALID,91.9818,VALID,0,VALID,25.0193,VALID,59,VALID,0,
2010-03-25, 00:15:05,VALID,1007.98,VALID,0,VALID,92.1344,VALID,0,VALID,24.9979,VALID,59,VALID,0,
2010-03-25, 00:16:05,VALID,1007.95,VALID,0,VALID,92.325,VALID,0,VALID,24.9784,VALID,59,VALID,0,
2010-03-25, 00:17:05,VALID,1007.91,VALID,0,VALID,92.3936,VALID,0,VALID,24.9803,VALID,59,VALID,0,
2010-03-25, 00:18:05,VALID,1007.9,VALID,0,VALID,92.4699,VALID,0,VALID,24.9608,VALID,59,VALID,0,
2010-03-25, 00:19:05,VALID,1007.85,VALID,0,VALID,92.5919,VALID,0,VALID,24.9004,VALID,59,VALID,0,
2010-03-25, 00:20:05,VALID,1007.87,VALID,0,VALID,92.6376,VALID,0.105969,VALID,24.8615,VALID,59,VALID,0,
2010-03-25, 00:21:05,VALID,1007.83,VALID,0,VALID,92.5385,VALID,0,VALID,24.8633,VALID,51,VALID,0,
2010-03-25, 00:22:05,VALID,1007.82,VALID,0,VALID,92.4546,VALID,0,VALID,24.8225,VALID,50,VALID,0,
2010-03-25, 00:23:05,VALID,1007.81,VALID,0,VALID,92.4165,VALID,0.105969,VALID,24.803,VALID,50,VALID,0,
2010-03-25, 00:24:05,VALID,1007.81,VALID,0,VALID,92.4241,VALID,0,VALID,24.7835,VALID,41,VALID,0,
2010-03-25, 00:25:05,VALID,1007.77,VALID,0,VALID,92.4165,VALID,0,VALID,24.764,VALID,44,VALID,0.671484,
2010-03-25, 00:26:05,VALID,1007.79,VALID,0,VALID,92.4394,VALID,0,VALID,24.7854,VALID,55,VALID,0.787109,
2010-03-25, 00:27:05,VALID,1007.79,VALID,0,VALID,92.4241,VALID,0,VALID,24.7835,VALID,50,VALID,0.553516,
2010-03-25, 00:28:05,VALID,1007.77,VALID,0,VALID,92.4623,VALID,0,VALID,24.7835,VALID,51,VALID,0.508984,
2010-03-25, 00:29:05,VALID,1007.75,VALID,0,VALID,92.4089,VALID,0,VALID,24.8049,VALID,51,VALID,0.310547,
2010-03-25, 00:30:05,VALID,1007.73,VALID,0,VALID,92.4165,VALID,0.105969,VALID,24.7835,VALID,51,VALID,0.333203,
2010-03-25, 00:31:05,VALID,1007.71,VALID,0,VALID,92.447,VALID,0.105969,VALID,24.8244,VALID,51,VALID,0,
2010-03-25, 00:32:05,VALID,1007.73,VALID,0,VALID,92.4241,VALID,0.105969,VALID,24.8049,VALID,51,VALID,0.128125,
2010-03-25, 00:33:05,VALID,1007.71,VALID,0,VALID,92.3936,VALID,0.105969,VALID,24.7835,VALID,51,VALID,0.00117188,
2010-03-25, 00:34:05,VALID,1007.7,VALID,0,VALID,92.4699,VALID,0.105969,VALID,24.764,VALID,51,VALID,0,
2010-03-25, 00:35:05,VALID,1007.66,VALID,0,VALID,92.4928,VALID,0.105969,VALID,24.7854,VALID,51,VALID,0,
2010-03-25, 00:36:05,VALID,1007.63,VALID,0,VALID,92.5233,VALID,0,VALID,24.764,VALID,51,VALID,0,
2010-03-25, 00:37:05,VALID,1007.63,VALID,0,VALID,92.5156,VALID,0.105969,VALID,24.7854,VALID,51,VALID,0,
2010-03-25, 00:38:05,VALID,1007.64,VALID,0,VALID,92.4851,VALID,0,VALID,24.7854,VALID,51,VALID,0,
2010-03-25, 00:39:05,VALID,1007.64,VALID,0,VALID,92.4699,VALID,0.105969,VALID,24.764,VALID,51,VALID,0,
2010-03-25, 00:40:05,VALID,1007.59,VALID,0,VALID,92.5385,VALID,0,VALID,24.7854,VALID,51,VALID,0,
2010-03-25, 00:41:05,VALID,1007.59,VALID,0,VALID,92.6605,VALID,0,VALID,24.7854,VALID,51,VALID,0,
2010-03-25, 00:42:05,VALID,1007.58,VALID,0,VALID,92.691,VALID,0,VALID,24.7854,VALID,51,VALID,0,
2010-03-25, 00:43:05,VALID,1007.56,VALID,0,VALID,92.6758,VALID,0,VALID,24.7659,VALID,51,VALID,0,
2010-03-25, 00:44:05,VALID,1007.56,VALID,0,VALID,92.7063,VALID,0,VALID,24.7464,VALID,51,VALID,0,
2010-03-25, 00:45:05,VALID,1007.57,VALID,0,VALID,92.7368,VALID,0,VALID,24.7464,VALID,51,VALID,0,
2010-03-25, 00:46:05,VALID,1007.57,VALID,0,VALID,92.7749,VALID,0,VALID,24.7055,VALID,51,VALID,0,
2010-03-25, 00:47:05,VALID,1007.54,VALID,0,VALID,92.8207,VALID,0,VALID,24.7074,VALID,51,VALID,0,
2010-03-25, 00:48:05,VALID,1007.52,VALID,0,VALID,92.8359,VALID,0,VALID,24.6471,VALID,51,VALID,0,
2010-03-25, 00:49:05,VALID,1007.54,VALID,0,VALID,92.8588,VALID,0,VALID,24.6684,VALID,51,VALID,0,
2010-03-25, 00:50:05,VALID,1007.55,VALID,0,VALID,92.8893,VALID,0,VALID,24.6471,VALID,51,VALID,0,
2010-03-25, 00:51:05,VALID,1007.53,VALID,0,VALID,92.9808,VALID,0,VALID,24.6489,VALID,51,VALID,0,
2010-03-25, 00:52:05,VALID,1007.54,VALID,0,VALID,93.0342,VALID,0.105969,VALID,24.6276,VALID,51,VALID,0,
2010-03-25, 00:53:05,VALID,1007.55,VALID,0,VALID,93.0647,VALID,0,VALID,24.6081,VALID,51,VALID,0,
2010-03-25, 00:54:05,VALID,1007.55,VALID,0,VALID,92.752,VALID,0.105969,VALID,24.6081,VALID,51,VALID,0,
2010-03-25, 00:55:05,VALID,1007.56,VALID,0,VALID,93.1486,VALID,0,VALID,24.6294,VALID,51,VALID,0,
2010-03-25, 00:56:05,VALID,1007.55,VALID,0,VALID,93.1562,VALID,0.105969,VALID,24.6099,VALID,51,VALID,0,
2010-03-25, 00:57:05,VALID,1007.57,VALID,0,VALID,93.1715,VALID,0.105969,VALID,24.5886,VALID,51,VALID,0,
2010-03-25, 00:58:05,VALID,1007.56,VALID,0,VALID,93.202,VALID,0.105969,VALID,24.6099,VALID,51,VALID,0,
2010-03-25, 00:59:05,VALID,1007.54,VALID,0,VALID,93.2477,VALID,0,VALID,24.6099,VALID,51,VALID,0,
2010-03-25, 01:00:05,VALID,1007.54,VALID,0,VALID,93.2401,VALID,0.105969,VALID,24.6099,VALID,51,VALID,0,
2010-03-25, 01:01:05,VALID,1007.53,VALID,0,VALID,93.2172,VALID,0,VALID,24.6294,VALID,51,VALID,0,
2010-03-25, 01:02:05,VALID,1007.54,VALID,0,VALID,93.141,VALID,0,VALID,24.6081,VALID,51,VALID,0,
2010-03-25, 01:03:05,VALID,1007.56,VALID,0,VALID,92.9884,VALID,0,VALID,24.6099,VALID,51,VALID,0.137109,
2010-03-25, 01:04:05,VALID,1007.55,VALID,0,VALID,92.8512,VALID,0.105969,VALID,24.5886,VALID,51,VALID,0.120312,
2010-03-25, 01:05:05,VALID,1007.55,VALID,0,VALID,92.7902,VALID,0,VALID,24.6099,VALID,51,VALID,0,
2010-03-25, 01:06:05,VALID,1007.55,VALID,0,VALID,92.7749,VALID,0,VALID,24.6294,VALID,109,VALID,0.485938,
2010-03-25, 01:07:05,VALID,1007.53,VALID,0,VALID,92.6834,VALID,0,VALID,24.6294,VALID,106,VALID,0.4125,
2010-03-25, 01:08:05,VALID,1007.54,VALID,0,VALID,92.5766,VALID,0.105969,VALID,24.6471,VALID,133,VALID,0.523828,
2010-03-25, 01:09:05,VALID,1007.52,VALID,0,VALID,92.4851,VALID,0,VALID,24.7074,VALID,133,VALID,0.0179687,
2010-03-25, 01:10:05,VALID,1007.55,VALID,0,VALID,92.4775,VALID,0,VALID,24.686,VALID,133,VALID,0,
2010-03-25, 01:11:05,VALID,1007.52,VALID,0,VALID,92.5919,VALID,0,VALID,24.7074,VALID,133,VALID,0,
2010-03-25, 01:12:05,VALID,1007.51,VALID,0,VALID,92.6376,VALID,0,VALID,24.7055,VALID,133,VALID,0,
2010-03-25, 01:13:05,VALID,1007.52,VALID,0,VALID,92.6376,VALID,0,VALID,24.686,VALID,133,VALID,0.078125,
2010-03-25, 01:14:05,VALID,1007.51,VALID,0,VALID,92.569,VALID,0,VALID,24.6684,VALID,131,VALID,0.369141,
2010-03-25, 01:15:05,VALID,1007.5,VALID,0,VALID,92.5156,VALID,0,VALID,24.6879,VALID,79,VALID,0.330078,
2010-03-25, 01:16:05,VALID,1007.48,VALID,0,VALID,92.447,VALID,0,VALID,24.6471,VALID,77,VALID,0.446094,
2010-03-25, 01:17:05,VALID,1007.45,VALID,0,VALID,92.3555,VALID,0.105969,VALID,24.6471,VALID,52,VALID,0.477734,
2010-03-25, 01:18:05,VALID,1007.42,VALID,0,VALID,92.3021,VALID,0,VALID,24.6684,VALID,52,VALID,0.267969,
2010-03-25, 01:19:05,VALID,1007.4,VALID,0,VALID,92.3479,VALID,0,VALID,24.6684,VALID,52,VALID,0.358984,
2010-03-25, 01:20:05,VALID,1007.38,VALID,0,VALID,92.3021,VALID,0,VALID,24.6276,VALID,52,VALID,0.500781,
2010-03-25, 01:21:05,VALID,1007.34,VALID,0,VALID,92.2792,VALID,0,VALID,24.6294,VALID,56,VALID,0.355859,
2010-03-25, 01:22:05,VALID,1007.33,VALID,0,VALID,92.3097,VALID,0,VALID,24.5886,VALID,70,VALID,0.570313,
2010-03-25, 01:23:05,VALID,1007.32,VALID,0,VALID,92.2945,VALID,0.105969,VALID,24.6081,VALID,77,VALID,0.317578,
2010-03-25, 01:24:05,VALID,1007.32,VALID,0,VALID,92.3097,VALID,0.105969,VALID,24.6081,VALID,77,VALID,0,
2010-03-25, 01:25:05,VALID,1007.33,VALID,0,VALID,92.325,VALID,0,VALID,24.6099,VALID,77,VALID,0,
2010-03-25, 01:26:05,VALID,1007.34,VALID,0,VALID,92.3555,VALID,0,VALID,24.5905,VALID,77,VALID,0,
2010-03-25, 01:27:05,VALID,1007.31,VALID,0,VALID,92.3708,VALID,0.105969,VALID,24.5691,VALID,77,VALID,0,
2010-03-25, 01:28:05,VALID,1007.31,VALID,0,VALID,92.3784,VALID,0.105969,VALID,24.5691,VALID,77,VALID,0,
2010-03-25, 01:29:05,VALID,1007.31,VALID,0,VALID,92.447,VALID,0.105969,VALID,24.5691,VALID,77,VALID,0,
2010-03-25, 01:30:05,VALID,1007.3,VALID,0,VALID,92.5004,VALID,0,VALID,24.571,VALID,77,VALID,0,
2010-03-25, 01:31:05,VALID,1007.31,VALID,0,VALID,92.5538,VALID,0.105969,VALID,24.5691,VALID,77,VALID,0,
2010-03-25, 01:32:05,VALID,1007.28,VALID,0,VALID,92.5919,VALID,0,VALID,24.5496,VALID,69,VALID,0.176563,
2010-03-25, 01:33:05,VALID,1007.27,VALID,0,VALID,92.5766,VALID,0,VALID,24.5496,VALID,69,VALID,0.116016,
2010-03-25, 01:34:05,VALID,1007.32,VALID,0,VALID,92.5385,VALID,0,VALID,24.5496,VALID,69,VALID,0,
2010-03-25, 01:35:05,VALID,1007.3,VALID,0,VALID,92.5461,VALID,0.105969,VALID,24.5496,VALID,69,VALID,0,
2010-03-25, 01:36:05,VALID,1007.34,VALID,0,VALID,92.6148,VALID,0,VALID,24.5496,VALID,69,VALID,0,
2010-03-25, 01:37:05,VALID,1007.33,VALID,0,VALID,92.6834,VALID,0,VALID,24.571,VALID,69,VALID,0,
2010-03-25, 01:38:05,VALID,1007.32,VALID,0,VALID,92.6987,VALID,0,VALID,24.5301,VALID,69,VALID,0,
2010-03-25, 01:39:05,VALID,1007.35,VALID,0,VALID,92.7444,VALID,0.105969,VALID,24.5496,VALID,69,VALID,0,
2010-03-25, 01:40:05,VALID,1007.36,VALID,0,VALID,92.7444,VALID,0,VALID,24.5301,VALID,69,VALID,0,
2010-03-25, 01:41:05,VALID,1007.33,VALID,0,VALID,92.7368,VALID,0,VALID,24.5106,VALID,69,VALID,0,
2010-03-25, 01:42:05,VALID,1007.35,VALID,0,VALID,92.7063,VALID,0,VALID,24.5125,VALID,69,VALID,0,
2010-03-25, 01:43:05,VALID,1007.34,VALID,0,VALID,92.7292,VALID,0,VALID,24.5106,VALID,69,VALID,0,
2010-03-25, 01:44:05,VALID,1007.36,VALID,0,VALID,92.7749,VALID,0,VALID,24.5301,VALID,69,VALID,0,
2010-03-25, 01:45:05,VALID,1007.33,VALID,0,VALID,92.7902,VALID,0,VALID,24.532,VALID,69,VALID,0.110156,
2010-03-25, 01:46:05,VALID,1007.32,VALID,0,VALID,92.8207,VALID,0.105969,VALID,24.5106,VALID,69,VALID,0.00195313,
2010-03-25, 01:47:05,VALID,1007.3,VALID,0,VALID,92.7902,VALID,0,VALID,24.5106,VALID,69,VALID,0,
2010-03-25, 01:48:05,VALID,1007.33,VALID,0,VALID,92.8207,VALID,0,VALID,24.5515,VALID,69,VALID,0,
2010-03-25, 01:49:05,VALID,1007.32,VALID,0,VALID,92.7978,VALID,0,VALID,24.5106,VALID,69,VALID,0,
2010-03-25, 01:50:05,VALID,1007.36,VALID,0,VALID,92.7673,VALID,0,VALID,24.532,VALID,97,VALID,0.687891,
2010-03-25, 01:51:05,VALID,1007.35,VALID,0,VALID,92.6758,VALID,0,VALID,24.5691,VALID,99,VALID,0.601172,
2010-03-25, 01:52:05,VALID,1007.39,VALID,0,VALID,92.5461,VALID,0,VALID,24.6099,VALID,119,VALID,0.422266,
2010-03-25, 01:53:05,VALID,1007.41,VALID,0,VALID,92.4546,VALID,0.105969,VALID,24.5886,VALID,119,VALID,0.19375,
2010-03-25, 01:54:05,VALID,1007.41,VALID,0,VALID,92.4318,VALID,0,VALID,24.6081,VALID,119,VALID,0.225391,
2010-03-25, 01:55:05,VALID,1007.41,VALID,0,VALID,92.3936,VALID,0,VALID,24.6081,VALID,112,VALID,0.199609,
2010-03-25, 01:56:05,VALID,1007.42,VALID,0,VALID,92.3097,VALID,0,VALID,24.6081,VALID,112,VALID,0,
2010-03-25, 01:57:05,VALID,1007.42,VALID,0,VALID,92.2716,VALID,0.105969,VALID,24.6294,VALID,106,VALID,0.333984,
2010-03-25, 01:58:05,VALID,1007.42,VALID,0,VALID,92.2411,VALID,0,VALID,24.6471,VALID,106,VALID,0.0503906,
2010-03-25, 01:59:05,VALID,1007.41,VALID,0,VALID,92.2564,VALID,0,VALID,24.6471,VALID,106,VALID,0,
2010-03-25, 02:00:05,VALID,1007.4,VALID,0,VALID,92.2792,VALID,0,VALID,24.6471,VALID,106,VALID,0,
2010-03-25, 02:01:05,VALID,1007.39,VALID,0,VALID,92.2716,VALID,0,VALID,24.6666,VALID,106,VALID,0,
2010-03-25, 02:02:05,VALID,1007.4,VALID,0,VALID,92.2792,VALID,0,VALID,24.6684,VALID,106,VALID,0,
2010-03-25, 02:03:05,VALID,1007.37,VALID,0,VALID,92.2182,VALID,0,VALID,24.6471,VALID,106,VALID,0,
2010-03-25, 02:04:05,VALID,1007.35,VALID,0,VALID,92.203,VALID,0,VALID,24.6471,VALID,106,VALID,0,
2010-03-25, 02:05:05,VALID,1007.34,VALID,0,VALID,92.2259,VALID,0,VALID,24.6879,VALID,125,VALID,0.25625,
2010-03-25, 02:06:05,VALID,1007.36,VALID,0,VALID,92.2182,VALID,0,VALID,24.6666,VALID,126,VALID,0.488672,
2010-03-25, 02:07:05,VALID,1007.33,VALID,0,VALID,92.2487,VALID,0,VALID,24.6879,VALID,126,VALID,0.580078,
2010-03-25, 02:08:05,VALID,1007.32,VALID,0,VALID,92.2335,VALID,0,VALID,24.6666,VALID,127,VALID,0.421094,
2010-03-25, 02:09:05,VALID,1007.29,VALID,0,VALID,92.2259,VALID,0,VALID,24.6666,VALID,128,VALID,0.630078,
2010-03-25, 02:10:05,VALID,1007.28,VALID,0,VALID,92.264,VALID,0,VALID,24.6666,VALID,132,VALID,0.346484,
2010-03-25, 02:11:05,VALID,1007.23,VALID,0,VALID,92.2792,VALID,0,VALID,24.6666,VALID,132,VALID,0.621875,
2010-03-25, 02:12:05,VALID,1007.23,VALID,0,VALID,92.3631,VALID,0,VALID,24.686,VALID,132,VALID,0,
2010-03-25, 02:13:05,VALID,1007.2,VALID,0,VALID,92.3708,VALID,0,VALID,24.7074,VALID,132,VALID,0,
2010-03-25, 02:14:05,VALID,1007.16,VALID,0,VALID,92.3784,VALID,0,VALID,24.6879,VALID,132,VALID,0,
2010-03-25, 02:15:05,VALID,1007.15,VALID,0,VALID,92.3555,VALID,0,VALID,24.6879,VALID,132,VALID,0,
2010-03-25, 02:16:05,VALID,1007.13,VALID,0,VALID,92.4089,VALID,0,VALID,24.6684,VALID,132,VALID,0,
2010-03-25, 02:17:05,VALID,1007.16,VALID,0,VALID,92.447,VALID,0,VALID,24.6666,VALID,132,VALID,0,
2010-03-25, 02:18:05,VALID,1007.16,VALID,0,VALID,92.5156,VALID,0,VALID,24.6666,VALID,132,VALID,0,
2010-03-25, 02:19:05,VALID,1007.15,VALID,0,VALID,92.6453,VALID,0.105969,VALID,24.6471,VALID,132,VALID,0,
2010-03-25, 02:20:05,VALID,1007.17,VALID,0,VALID,92.7139,VALID,0,VALID,24.6276,VALID,132,VALID,0,
2010-03-25, 02:21:05,VALID,1007.13,VALID,0,VALID,92.8207,VALID,0,VALID,24.6489,VALID,132,VALID,0,
2010-03-25, 02:22:05,VALID,1007.17,VALID,0,VALID,92.9046,VALID,0,VALID,24.6294,VALID,132,VALID,0,
2010-03-25, 02:23:05,VALID,1007.18,VALID,0,VALID,92.9579,VALID,0,VALID,24.6099,VALID,132,VALID,0,
2010-03-25, 02:24:05,VALID,1007.19,VALID,0,VALID,93.0418,VALID,0,VALID,24.6099,VALID,132,VALID,0,
2010-03-25, 02:25:05,VALID,1007.17,VALID,0,VALID,93.1486,VALID,0,VALID,24.6081,VALID,132,VALID,0,
2010-03-25, 02:26:05,VALID,1007.21,VALID,0,VALID,93.1943,VALID,0,VALID,24.5691,VALID,132,VALID,0,
2010-03-25, 02:27:05,VALID,1007.2,VALID,0,VALID,93.2325,VALID,0.105969,VALID,24.6099,VALID,132,VALID,0,
2010-03-25, 02:28:05,VALID,1007.19,VALID,0,VALID,93.2477,VALID,0,VALID,24.5905,VALID,132,VALID,0,
2010-03-25, 02:29:05,VALID,1007.2,VALID,0,VALID,93.2858,VALID,0,VALID,24.5496,VALID,132,VALID,0,
2010-03-25, 02:30:05,VALID,1007.22,VALID,0,VALID,93.3316,VALID,0,VALID,24.571,VALID,132,VALID,0,
2010-03-25, 02:31:05,VALID,1007.22,VALID,0,VALID,93.3697,VALID,0,VALID,24.5301,VALID,132,VALID,0,
2010-03-25, 02:32:05,VALID,1007.2,VALID,0,VALID,93.4002,VALID,0.105969,VALID,24.5515,VALID,132,VALID,0,
2010-03-25, 02:33:05,VALID,1007.23,VALID,0,VALID,93.446,VALID,0,VALID,24.5301,VALID,132,VALID,0,
2010-03-25, 02:34:05,VALID,1007.19,VALID,0,VALID,93.4994,VALID,0.105969,VALID,24.532,VALID,132,VALID,0,
2010-03-25, 02:35:05,VALID,1007.2,VALID,0,VALID,93.5375,VALID,0.105969,VALID,24.5106,VALID,132,VALID,0,
2010-03-25, 02:36:05,VALID,1007.18,VALID,0,VALID,93.568,VALID,0,VALID,24.5125,VALID,132,VALID,0,
2010-03-25, 02:37:05,VALID,1007.18,VALID,0,VALID,93.5985,VALID,0.105969,VALID,24.4911,VALID,132,VALID,0,
2010-03-25, 02:38:05,VALID,1007.17,VALID,0,VALID,93.6366,VALID,0,VALID,24.532,VALID,132,VALID,0,
2010-03-25, 02:39:05,VALID,1007.16,VALID,0,VALID,93.6748,VALID,0,VALID,24.5125,VALID,132,VALID,0,
2010-03-25, 02:40:05,VALID,1007.17,VALID,0,VALID,93.7129,VALID,0.105969,VALID,24.4911,VALID,132,VALID,0,
2010-03-25, 02:41:05,VALID,1007.14,VALID,0,VALID,93.6976,VALID,0.105969,VALID,24.5125,VALID,132,VALID,0,
2010-03-25, 02:42:05,VALID,1007.16,VALID,0,VALID,93.7205,VALID,0.105969,VALID,24.4911,VALID,132,VALID,0,
2010-03-25, 02:43:05,VALID,1007.16,VALID,0,VALID,93.7358,VALID,0.105969,VALID,24.493,VALID,132,VALID,0,
2010-03-25, 02:44:05,VALID,1007.15,VALID,0,VALID,93.751,VALID,0.105969,VALID,24.4717,VALID,132,VALID,0,
2010-03-25, 02:45:05,VALID,1007.12,VALID,0,VALID,93.7663,VALID,0,VALID,24.493,VALID,126,VALID,0,
2010-03-25, 02:46:05,VALID,1007.13,VALID,0,VALID,93.7663,VALID,0,VALID,24.4717,VALID,125,VALID,0,
2010-03-25, 02:47:05,VALID,1007.12,VALID,0,VALID,93.7968,VALID,0.105969,VALID,24.4735,VALID,113,VALID,0,
2010-03-25, 02:48:05,VALID,1007.09,VALID,0,VALID,93.7815,VALID,0,VALID,24.4327,VALID,85,VALID,0.335938,
2010-03-25, 02:49:05,VALID,1007.1,VALID,0,VALID,93.7815,VALID,0,VALID,24.4132,VALID,73,VALID,0.3375,
2010-03-25, 02:50:05,VALID,1007.13,VALID,0,VALID,93.7891,VALID,0.105969,VALID,24.3937,VALID,73,VALID,0.313672,
2010-03-25, 02:51:05,VALID,1007.14,VALID,0,VALID,93.7663,VALID,0.105969,VALID,24.415,VALID,69,VALID,0.413281,
2010-03-25, 02:52:04,VALID,1007.15,VALID,0,VALID,93.7739,VALID,0,VALID,24.4345,VALID,68,VALID,0.285937,
2010-03-25, 02:53:04,VALID,1007.17,VALID,0,VALID,93.7739,VALID,0.105969,VALID,24.4345,VALID,69,VALID,0.0195313,
2010-03-25, 02:54:04,VALID,1007.17,VALID,0,VALID,93.7968,VALID,0,VALID,24.4327,VALID,68,VALID,0,
2010-03-25, 02:55:04,VALID,1007.23,VALID,0,VALID,93.812,VALID,0,VALID,24.454,VALID,68,VALID,0,
2010-03-25, 02:56:04,VALID,1007.22,VALID,0,VALID,93.8273,VALID,0,VALID,24.454,VALID,68,VALID,0,
2010-03-25, 02:57:04,VALID,1007.24,VALID,0,VALID,93.8425,VALID,0,VALID,24.454,VALID,68,VALID,0,
2010-03-25, 02:58:04,VALID,1007.21,VALID,0,VALID,93.8502,VALID,0,VALID,24.4522,VALID,69,VALID,0,
2010-03-25, 02:59:04,VALID,1007.23,VALID,0,VALID,93.8502,VALID,0.105969,VALID,24.454,VALID,68,VALID,0,
2010-03-25, 03:00:04,VALID,1007.21,VALID,0,VALID,93.8349,VALID,0,VALID,24.4327,VALID,69,VALID,0,
2010-03-25, 03:01:04,VALID,1007.25,VALID,0,VALID,93.8349,VALID,0.105969,VALID,24.4327,VALID,69,VALID,0,
2010-03-25, 03:02:04,VALID,1007.23,VALID,0,VALID,93.873,VALID,0,VALID,24.4327,VALID,68,VALID,0,
2010-03-25, 03:03:04,VALID,1007.22,VALID,0,VALID,93.8959,VALID,0.105969,VALID,24.454,VALID,68,VALID,0,
2010-03-25, 03:04:04,VALID,1007.23,VALID,0,VALID,93.8959,VALID,0.105969,VALID,24.454,VALID,68,VALID,0,
2010-03-25, 03:05:04,VALID,1007.23,VALID,0,VALID,93.9035,VALID,0.105969,VALID,24.4327,VALID,68,VALID,0.0191406,
2010-03-25, 03:06:04,VALID,1007.27,VALID,0,VALID,93.9112,VALID,0.105969,VALID,24.4327,VALID,69,VALID,0,
2010-03-25, 03:07:04,VALID,1007.25,VALID,0,VALID,93.9188,VALID,0.105969,VALID,24.4327,VALID,69,VALID,0,
2010-03-25, 03:08:04,VALID,1007.25,VALID,0,VALID,93.9264,VALID,0.105969,VALID,24.4345,VALID,69,VALID,0,
2010-03-25, 03:09:04,VALID,1007.29,VALID,0,VALID,93.9035,VALID,0.105969,VALID,24.4132,VALID,68,VALID,0,
2010-03-25, 03:10:04,VALID,1007.29,VALID,0,VALID,93.9112,VALID,0.105969,VALID,24.4327,VALID,68,VALID,0,
2010-03-25, 03:11:04,VALID,1007.3,VALID,0,VALID,93.9264,VALID,0,VALID,24.4132,VALID,69,VALID,0,
2010-03-25, 03:12:04,VALID,1007.3,VALID,0,VALID,93.9264,VALID,0,VALID,24.4345,VALID,69,VALID,0,
2010-03-25, 03:13:04,VALID,1007.31,VALID,0,VALID,93.934,VALID,0,VALID,24.454,VALID,69,VALID,0,
2010-03-25, 03:14:04,VALID,1007.28,VALID,0,VALID,93.9645,VALID,0.105969,VALID,24.454,VALID,69,VALID,0,
2010-03-25, 03:15:04,VALID,1007.29,VALID,0,VALID,93.9722,VALID,0.105969,VALID,24.4132,VALID,69,VALID,0,
2010-03-25, 03:16:04,VALID,1007.29,VALID,0,VALID,93.9493,VALID,0.105969,VALID,24.4345,VALID,69,VALID,0,
2010-03-25, 03:17:04,VALID,1007.26,VALID,0,VALID,93.9493,VALID,0.105969,VALID,24.4132,VALID,68,VALID,0,
2010-03-25, 03:18:04,VALID,1007.28,VALID,0,VALID,93.9417,VALID,0.105969,VALID,24.3937,VALID,68,VALID,0,
2010-03-25, 03:19:04,VALID,1007.27,VALID,0,VALID,93.9569,VALID,0,VALID,24.3742,VALID,69,VALID,0,
2010-03-25, 03:20:04,VALID,1007.25,VALID,0,VALID,93.934,VALID,0.105969,VALID,24.3761,VALID,69,VALID,0,
2010-03-25, 03:21:04,VALID,1007.22,VALID,0,VALID,93.9645,VALID,0.105969,VALID,24.3956,VALID,69,VALID,0,
2010-03-25, 03:22:04,VALID,1007.24,VALID,0,VALID,93.9569,VALID,0,VALID,24.3761,VALID,69,VALID,0,
2010-03-25, 03:23:04,VALID,1007.23,VALID,0,VALID,93.9722,VALID,0.105969,VALID,24.3566,VALID,69,VALID,0,
2010-03-25, 03:24:04,VALID,1007.23,VALID,0,VALID,93.9493,VALID,0.105969,VALID,24.3566,VALID,68,VALID,0,
2010-03-25, 03:25:04,VALID,1007.22,VALID,0,VALID,93.9645,VALID,0.105969,VALID,24.3566,VALID,69,VALID,0,
2010-03-25, 03:26:04,VALID,1007.2,VALID,0,VALID,93.9798,VALID,0.105969,VALID,24.3352,VALID,69,VALID,0,
2010-03-25, 03:27:04,VALID,1007.22,VALID,0,VALID,93.9722,VALID,0.105969,VALID,24.3371,VALID,68,VALID,0,
2010-03-25, 03:28:04,VALID,1007.21,VALID,0,VALID,94.0027,VALID,0.105969,VALID,24.3371,VALID,68,VALID,0,
2010-03-25, 03:29:04,VALID,1007.21,VALID,0,VALID,93.995,VALID,0,VALID,24.3176,VALID,69,VALID,0,
2010-03-25, 03:30:04,VALID,1007.2,VALID,0,VALID,94.0027,VALID,0.105969,VALID,24.2963,VALID,69,VALID,0,
2010-03-25, 03:31:04,VALID,1007.21,VALID,0,VALID,94.0027,VALID,0.105969,VALID,24.2981,VALID,69,VALID,0,
2010-03-25, 03:32:04,VALID,1007.2,VALID,0,VALID,93.995,VALID,0.105969,VALID,24.2768,VALID,68,VALID,0,
2010-03-25, 03:33:04,VALID,1007.2,VALID,0,VALID,94.0103,VALID,0,VALID,24.2768,VALID,68,VALID,0,
2010-03-25, 03:34:04,VALID,1007.19,VALID,0,VALID,94.0027,VALID,0.105969,VALID,24.2768,VALID,69,VALID,0,
2010-03-25, 03:35:04,VALID,1007.18,VALID,0,VALID,94.0103,VALID,0,VALID,24.3176,VALID,69,VALID,0,
2010-03-25, 03:36:04,VALID,1007.18,VALID,0,VALID,93.9874,VALID,0,VALID,24.3176,VALID,69,VALID,0,
2010-03-25, 03:37:04,VALID,1007.2,VALID,0,VALID,94.0255,VALID,0,VALID,24.3371,VALID,69,VALID,0,
2010-03-25, 03:38:04,VALID,1007.19,VALID,0,VALID,94.0255,VALID,0,VALID,24.3371,VALID,69,VALID,0,
2010-03-25, 03:39:04,VALID,1007.21,VALID,0,VALID,94.056,VALID,0.105969,VALID,24.3371,VALID,69,VALID,0,
2010-03-25, 03:40:04,VALID,1007.2,VALID,0,VALID,94.0484,VALID,0.105969,VALID,24.2963,VALID,69,VALID,0,
2010-03-25, 03:41:04,VALID,1007.2,VALID,0,VALID,94.0408,VALID,0,VALID,24.2981,VALID,69,VALID,0,
2010-03-25, 03:42:04,VALID,1007.2,VALID,0,VALID,94.0484,VALID,0,VALID,24.2981,VALID,69,VALID,0,
2010-03-25, 03:43:04,VALID,1007.19,VALID,0,VALID,94.0637,VALID,0.105969,VALID,24.2573,VALID,69,VALID,0,
2010-03-25, 03:44:04,VALID,1007.22,VALID,0,VALID,94.0637,VALID,0,VALID,24.2591,VALID,69,VALID,0,
2010-03-25, 03:45:04,VALID,1007.2,VALID,0,VALID,94.056,VALID,0,VALID,24.2786,VALID,69,VALID,0,
2010-03-25, 03:46:04,VALID,1007.21,VALID,0,VALID,94.0484,VALID,0,VALID,24.2591,VALID,69,VALID,0,
2010-03-25, 03:47:04,VALID,1007.2,VALID,0,VALID,94.0484,VALID,0,VALID,24.2183,VALID,69,VALID,0,
2010-03-25, 03:48:04,VALID,1007.22,VALID,0,VALID,94.0408,VALID,0.105969,VALID,24.2396,VALID,69,VALID,0,
2010-03-25, 03:49:04,VALID,1007.2,VALID,0,VALID,94.056,VALID,0,VALID,24.2378,VALID,69,VALID,0,
2010-03-25, 03:50:04,VALID,1007.23,VALID,0,VALID,94.0332,VALID,0,VALID,24.2591,VALID,69,VALID,0,
2010-03-25, 03:51:04,VALID,1007.23,VALID,0,VALID,94.0332,VALID,0,VALID,24.2183,VALID,69,VALID,0,
2010-03-25, 03:52:04,VALID,1007.24,VALID,0,VALID,94.0332,VALID,0,VALID,24.2591,VALID,69,VALID,0,